COSMOS 249 DEB, 3912

Orbit data source: Space-Track

COSMOS 249 DEB, 3912 is space debris in LEO originally from a launch on Sun, 20 Oct 1968 UTC launched from the Tyuratam Missile And Space Complex (TTMTR). Debris objects in space refer to the collection of defunct objects orbiting the Earth. Examples of debris include non-operational satellites, rocket bodies, and fragments generated from explosions, collisions, or faulty payload assembly.

Loading next visibility...
Identifier
3912, 1968-091BQ
Orbit
LEO
Country
Flag of CISCIS
Related business
Manufacturer
Unknown
Mission
Spacecraft
Bus & Motor
Unknown
Mass
Unknown
Launch date (UTC)
1968-10-20 (58 years ago)
Launch vehicle
Unknown
Launch site
Tyuratam Missile And Space Complex (TTMTR)
Object type
Payload
Rocket body
Debris
Shape & HBR
Unknown shape, 0.1 m
Radar Cross Section
Small (<0.1 m²)

Expand to show TLE details & history
Last TLE update: 20 hours ago

TLE from 20 hours ago
0 COSMOS 249 DEB
1 03912U 68091BQ  26126.83578337  .00001012  00000-0  13957-2 0  9991
2 03912  62.2479  12.9595 0794329  63.5378 304.4855 12.74257894640057
Epoch: 2026-05-06T20:03Z
TLE epoch observation values (Epoch: 2026-05-06T20:03:31.683Z)
Latitude
-0.00001°
Longitude
-152.61309°
Altitude
1,053.451 km
Speed
7.472 km/s
True Right ascension
00h 51m 50s
True Declination
0° 00' 00"
Sunlit
Object was in daylight at epoch
Visualization orbit readout
Latitude
Unknown
Longitude
Unknown
Altitude
Unknown
Speed
Unknown
Apparent Right ascension
Unknown
Apparent Declination
Unknown
Sunlit
N/A
Visualization observer readout
Local Sidereal Time
00:32:10
Azimuth
Unknown
Elevation
Unknown
Doppler factor
Unknown
Orbital elements
Apogee altitude
1,978.597 km
Perigee altitude
748.693 km
Semi-major axis
7,741.782 km
Eccentricity
0.07943
Inclination
62.2479°
RAAN
12.9595°
Arg. of periapsis
63.5378°
True anomaly
296.56244°
Mean anomaly
304.4855°
Eccentric anomaly
300.56677°
Mean motion
3.18626 °/min
Orbital period
112.98 mins
BSTAR
0.0013957
Loading maneuver chart data...
Computing Atmospheric mass density...

Documentation

Showing up to 5 results
|